Location: El Frío
(10.0713°N, 67.9111°W)
Time: 19:18:43
(UTC+00:00)

IRS-P3 - Pass Details

Date: 11 December 2025
Orbit: 810 x 815 km, 99.0° (Epoch: 20 January)

Event Time Altitude Azimuth Distance (km) Brightness Sun altitude
Rises 22:34:26 0° 158° (SSE) 3,331 7.3 -6.0°
Reaches altitude 10° 22:36:49 10° 154° (SSE) 2,399 6.5 -6.6°
Maximum altitude 22:42:00 57° 76° (ENE) 953 4.2 -7.7°
Drops below altitude 10° 22:47:11 10° 359° (N) 2,394 6.4 -8.9°
Sets 22:49:33 0° 355° (N) 3,324 7.1 -9.5°
